UHETSAT

导读

UHETSAT是意大利SITAEL公司研制的商用技术试验卫星,于协调世界时2023年12月1日,由猎鹰9号火箭从美国空军西部试验场成功发射。卫星重量70千克,运行在近地太阳同步轨道,轨道近地点约475千米、远地点约497千米。它的核心任务是在轨验证SITAEL公司研发的HT100霍尔效应推进器,这款推进器是目前同类产品中最小的型号之一,此次试验将推动小型卫星推进技术的发展。

基本信息
目录编号:
58466
目录名称:
UHETSAT
国际标识:
2023-185E
轨道中心:
EARTH
卫星名称:
UHETSAT
卫星全名:
--
卫星状态:
在轨 (已飞行1008 天)
发射日期:
2023-12-01 UTC
国别 :
意大利 (IT)
星等 :
--
轨道信息
数据来源 国际轨道数据
星历时间: 2026-09-02T22:33:35+0800
1天前
查看轨道信息
半长轴: 6847.691km
偏心率: 0.0013605
轨道倾角: 97.340°
近地点辐角 41.737°
升交点赤经 312.393°
平近点角 318.491°
近地点: 460.237km
远地点: 478.871km
周期: 93.989分钟
每日圈数: 15.320981
详细信息
使用方式:
暂无
2D轨道图
3D轨道图
轨道高度分析图
轨道倾角分析图
轨道综合分析图
查看轨道综合分析图
交会数据列表
事件ID 空间交会对象 最接近时刻(TCA) 交会距离 交会风险概率(CRP) 交会风险指数(CRI) 操作
CDM_260904-054805-846606-914922
UHETSAT (58466)
2026-09-04T
05:48:08+0000
0.732 km
远距离
7.470892E-5 中风险 0.72
CDM_260905-070005-784805-846621
UHETSAT (58466)
2026-09-05T
07:00:16+0000
0.957 km
远距离
3.069777E-5 中风险 0.65
CDM_260904-020005-771605-846623
UHETSAT (58466)
2026-09-04T
02:00:04+0000
1.124 km
极远距离
1.653041E-5 中风险 0.59
CDM_260828-065605-846606-307223
UHETSAT (58466)
2026-08-28T
06:56:58+0000
1.067 km
极远距离
1.484609E-5 中风险 0.58
CDM_260904-042405-846606-015623
UHETSAT (58466)
2026-09-04T
04:24:42+0000
1.186 km
极远距离
1.316247E-5 中风险 0.57
CDM_260904-071604-944505-846622
UHETSAT (58466)
2026-09-04T
07:16:06+0000
1.495 km
极远距离
6.765081E-6 低风险 0.52
CDM_260903-211505-707005-846623
UHETSAT (58466)
2026-09-03T
21:15:41+0000
1.514 km
极远距离
6.20262E-6 低风险 0.51
CDM_260901-085305-846606-688522
UHETSAT (58466)
2026-09-01T
08:53:41+0000
1.548 km
极远距离
3.500108E-6 低风险 0.46
CDM_260830-165705-846606-162922
UHETSAT (58466)
2026-08-30T
16:57:50+0000
1.677 km
极远距离
3.446936E-6 低风险 0.46
CDM_260902-101505-846606-923423
UHETSAT (58466)
2026-09-02T
10:15:42+0000
1.556 km
极远距离
3.389141E-6 低风险 0.46